Theta_e
309 308 309 311 312 314 316 313 310 312 313 314 315 316 316 315 314 314 315 314 314 313 313 313 313 313 313 313 313 314 315 316 318 320 321 321 322 322 322 324 324 325 326 327 328 329 330 331 330 329 329 328 327 327 327 328 328 327 327 327 327 328 328
309 308 309 311 313 314 316 313 310 310 311 312 312 313 312 310 308 308 309 308 308 308 309 309 308 308 308 308 308 308 309 310 311 313 316 318 319 319 320 321 322 323 325 325 325 326 327 328 329 328 328 328 327 328 327 327 328 328 328 328 327 327 328
310 308 309 312 314 315 316 313 310 310 311 311 310 309 308 306 306 306 306 306 307 307 308 307 307 307 307 306 306 306 306 306 307 308 310 313 314 315 317 318 319 320 322 322 322 323 324 326 326 326 326 326 326 327 326 326 326 326 327 327 326 326 327
311 309 309 311 313 314 315 314 311 310 310 310 309 308 307 307 308 308 308 309 308 308 307 307 307 307 307 307 307 307 306 307 307 306 307 307 309 311 312 314 316 317 318 319 319 320 321 322 323 323 324 324 324 324 325 326 325 325 326 326 327 327 326
311 311 310 309 310 311 312 313 312 310 311 311 310 309 309 309 310 311 311 310 310 309 307 306 307 307 307 308 308 308 308 307 308 307 307 306 307 308 309 310 312 313 314 315 316 317 318 319 320 321 322 321 321 322 323 324 324 324 325 325 326 327 327
311 311 311 310 309 308 309 310 311 310 310 310 310 310 309 310 311 312 313 312 311 310 308 306 306 306 307 308 308 309 308 308 308 308 308 307 307 307 308 308 309 310 310 310 311 313 315 316 317 318 319 319 320 321 321 322 323 323 324 324 325 325 326
312 311 311 311 311 309 308 307 307 308 308 308 308 308 308 310 311 312 313 313 312 310 308 306 305 305 306 308 308 308 308 308 308 307 307 307 307 307 307 308 308 308 308 308 309 310 311 313 315 316 316 317 317 319 319 319 320 321 322 323 324 324 325
312 312 311 311 311 312 310 308 307 306 306 307 307 308 308 310 311 312 313 313 313 311 308 306 305 305 305 307 308 308 307 307 307 307 307 307 307 306 306 307 307 307 307 307 308 308 309 310 311 312 313 314 314 315 317 317 318 319 320 320 320 322 324
313 313 312 311 311 312 313 312 310 307 306 306 307 308 309 310 311 312 314 314 313 311 308 306 306 306 305 306 307 307 307 307 307 307 307 307 307 306 306 306 306 307 306 306 307 307 307 308 308 309 310 312 312 313 314 315 316 317 318 318 319 321 323
315 314 313 312 311 311 313 313 313 311 309 307 307 309 310 311 312 313 314 314 313 310 307 306 306 306 306 307 307 307 307 307 307 307 307 307 307 307 307 306 306 306 306 306 306 306 307 307 307 308 308 310 311 311 311 312 313 315 317 317 318 319 320
316 314 314 312 311 311 312 313 314 313 311 309 308 308 310 311 312 313 314 313 312 310 307 306 306 306 307 307 307 307 306 307 307 307 307 306 306 306 306 306 306 306 306 306 306 306 306 306 307 307 307 308 309 310 311 311 311 313 315 315 316 317 318
316 314 313 312 311 312 312 313 314 314 314 312 309 309 310 311 312 313 314 313 312 309 306 306 307 307 307 307 307 307 305 306 307 307 306 306 306 306 306 306 306 306 305 305 305 306 306 306 306 306 307 307 307 308 309 309 309 311 313 314 315 316 316
316 314 313 312 312 313 313 313 314 314 315 314 311 310 310 311 312 313 313 313 311 308 306 306 307 307 307 307 307 307 305 305 307 306 306 306 305 305 305 305 305 305 305 305 305 305 305 305 305 305 306 306 306 306 307 308 308 309 310 311 312 313 313
316 315 314 313 313 314 315 314 314 314 315 314 313 312 311 312 312 312 313 312 310 308 306 307 307 307 307 307 306 306 305 305 306 306 305 305 305 304 304 304 304 304 304 305 305 305 305 305 304 305 305 305 305 306 306 306 307 308 309 309 310 311 312
315 315 315 315 314 315 316 315 315 315 315 315 313 313 313 312 312 312 312 311 310 307 307 307 307 307 307 306 305 305 305 305 305 305 305 304 304 304 303 303 303 303 303 304 304 304 304 304 304 304 304 304 304 305 304 305 306 307 308 309 309 309 309
315 315 315 316 316 316 316 316 315 315 315 315 314 313 313 313 313 312 312 311 309 307 307 307 307 307 307 306 306 305 304 305 305 304 304 304 303 303 303 303 302 302 302 303 303 304 304 304 304 304 304 304 304 304 304 304 305 306 307 307 307 307 308
317 316 317 317 317 317 316 316 315 315 315 315 314 314 313 313 313 312 312 311 309 307 307 307 307 307 306 306 305 305 304 304 304 304 303 303 302 302 302 302 302 301 301 301 302 302 303 304 304 304 304 304 304 303 303 304 304 304 305 305 306 306 306
318 317 317 317 317 317 317 316 316 315 315 315 314 314 314 314 313 312 312 311 309 307 307 307 307 307 306 305 304 304 304 303 303 302 302 302 302 301 301 301 301 301 301 301 301 301 302 302 302 303 303 304 303 303 303 303 303 303 304 304 305 305 305
319 318 318 318 318 318 317 317 316 316 315 314 314 314 314 314 313 313 312 311 309 307 307 307 307 306 305 304 303 303 302 302 302 301 301 301 300 300 300 300 300 301 301 301 301 301 301 301 301 301 302 302 303 303 303 303 303 303 303 304 304 304 304
320 319 319 319 318 318 318 317 316 315 314 313 313 313 314 313 313 313 312 311 309 307 307 307 307 306 304 303 303 302 302 301 301 300 299 298 298 298 298 299 299 299 300 300 300 301 301 301 301 301 301 301 302 302 302 302 302 303 303 303 303 303 303
320 320 320 319 318 317 317 316 315 313 313 313 313 313 313 313 313 312 312 310 308 307 307 307 306 305 304 303 302 302 301 300 299 297 296 295 295 295 296 296 297 297 298 298 298 299 300 300 300 300 301 301 301 301 301 301 301 302 302 302 302 302 303
319 320 320 319 319 318 315 314 314 313 314 314 314 313 313 313 313 312 310 309 308 308 307 307 306 304 303 302 302 301 299 297 296 296 296 295 295 295 295 295 295 294 294 294 294 295 296 297 298 299 300 300 300 300 300 300 300 301 301 301 301 302 302
315 318 319 319 319 319 316 315 315 314 314 314 314 313 313 313 313 312 310 309 308 308 307 306 305 303 302 302 301 298 296 295 295 295 295 295 295 295 295 295 295 294 293 293 293 293 293 294 294 295 297 298 299 299 300 300 300 300 300 300 300 301 301
311 314 317 318 319 319 317 316 316 314 313 313 313 313 313 313 313 311 310 309 308 307 306 305 304 303 302 300 298 296 295 295 295 295 295 295 295 295 295 295 295 295 294 294 295 295 294 294 294 294 294 294 295 296 298 299 299 299 300 300 300 300 300
309 311 314 316 317 317 317 316 315 314 313 313 313 312 312 313 312 311 310 309 307 306 305 304 303 301 299 297 295 295 295 295 294 295 295 294 294 295 295 295 295 296 295 295 294 295 295 295 295 295 294 294 294 294 295 296 297 298 299 299 299 299 300
308 310 312 314 315 316 315 315 314 314 313 312 312 312 312 311 311 310 309 307 306 305 304 302 301 298 296 294 294 294 294 294 294 294 294 294 294 294 295 295 295 295 295 295 294 295 296 296 296 295 295 295 295 294 294 294 295 295 297 298 298 299 299
309 310 311 312 314 314 314 314 314 314 313 312 311 311 311 310 310 309 308 307 306 304 302 300 297 295 294 294 294 293 293 292 292 293 293 293 293 294 294 294 294 295 295 295 295 295 295 295 295 295 295 295 295 295 295 295 295 295 295 295 296 297 297
309 310 311 311 312 313 313 314 314 314 312 311 311 311 310 309 309 308 307 306 305 302 300 297 294 294 294 294 293 292 292 292 292 292 292 292 293 293 293 293 294 294 294 294 294 294 294 294 294 294 294 294 295 295 295 295 296 295 295 295 296 296 296
309 310 310 311 311 312 313 313 313 313 312 310 310 309 309 309 309 308 306 305 303 300 296 294 294 295 294 293 292 292 292 292 292 292 292 292 292 293 293 293 293 293 293 293 293 293 292 292 292 292 293 293 294 294 294 295 295 295 295 295 295 295 295
309 310 310 310 311 312 312 312 313 312 311 309 308 308 308 308 307 306 304 303 300 297 295 294 295 295 294 293 292 292 292 292 292 292 292 292 292 292 292 292 292 292 293 293 293 292 291 291 291 292 292 292 292 293 293 293 294 293 293 293 293 293 293
308 309 310 310 310 311 311 312 312 311 310 308 307 306 306 305 304 304 303 300 298 296 295 295 295 295 294 293 292 292 292 292 292 292 293 293 293 293 292 292 291 292 292 292 292 291 291 290 290 291 291 291 291 291 292 292 292 293 293 293 293 292 292
308 308 309 310 310 311 311 311 310 309 308 306 305 304 304 304 303 302 301 298 296 296 296 296 295 294 293 292 292 292 292 292 292 293 293 293 293 293 293 292 292 291 291 291 291 290 290 289 290 290 290 290 290 290 291 291 291 291 292 292 292 292 292
307 307 308 309 310 310 310 309 308 307 305 304 302 301 303 303 302 300 298 296 296 296 296 296 295 294 293 293 292 292 292 292 292 292 292 293 292 292 292 292 292 292 291 290 290 289 289 289 289 289 290 290 290 290 290 290 290 290 291 291 291 291 292
307 307 308 309 309 309 309 308 307 305 303 302 301 301 301 301 300 298 297 296 296 296 296 295 294 293 293 293 292 291 291 292 292 292 292 292 292 292 292 292 292 291 290 290 289 289 289 288 288 288 288 289 289 289 289 290 290 290 290 290 290 290 290
306 307 307 308 307 307 306 306 304 303 302 302 301 300 299 298 298 297 297 297 297 296 295 294 293 293 292 292 291 291 291 291 291 291 292 292 292 292 292 291 291 291 290 289 289 288 288 287 287 287 288 288 288 288 288 288 289 289 289 289 290 290 290
306 306 307 307 306 305 304 303 303 302 302 300 298 297 297 297 297 297 297 297 296 295 294 293 292 292 292 291 291 290 290 290 290 290 291 291 291 291 291 291 290 290 289 288 287 287 287 287 287 287 288 288 288 287 288 288 288 288 289 289 289 289 290
306 306 305 304 304 303 302 302 301 300 299 298 297 297 297 297 297 297 296 295 294 293 293 292 292 292 291 291 290 290 290 290 290 290 290 290 291 290 290 290 289 288 288 287 287 287 287 287 287 288 288 288 287 288 288 288 288 289 289 289 289 289 290
Wind_Speed
12 11 10 10 9 8 7 6 7 8 8 8 7 6 6 5 6 7 7 9 10 11 11 12 12 11 9 9 9 8 8 7 7 7 6 5 4 4 4 3 2 1 1 1 2 2 2 2 2 2 3 4 5 5 2 1 2 4 5 5 5 6 7
13 11 11 12 11 10 9 8 7 8 9 9 9 8 8 9 11 12 12 12 13 13 13 12 12 11 10 9 9 8 8 8 8 7 7 7 6 5 4 4 5 4 2 2 4 4 2 3 2 2 3 6 6 3 2 4 5 6 6 7 7 8 8
15 12 12 13 12 11 10 9 9 9 9 9 10 11 11 11 12 12 12 12 12 12 12 12 12 12 11 11 11 10 9 9 9 8 7 8 7 7 6 5 5 5 3 3 4 5 4 3 3 4 5 6 5 5 6 7 7 8 8 8 9 9 8
17 14 14 15 14 13 12 11 10 10 10 10 11 10 10 10 10 9 9 10 10 11 11 12 12 12 12 12 12 12 12 12 11 10 9 8 8 8 8 7 6 5 4 3 4 5 4 4 4 5 6 6 8 9 7 7 10 10 7 7 7 7 7
19 17 16 17 16 15 14 13 12 12 12 12 11 10 10 9 8 8 7 8 8 9 10 11 11 11 11 11 12 12 13 13 12 12 12 11 10 9 9 8 6 5 4 4 3 4 5 5 6 6 7 8 9 9 9 10 12 10 8 8 7 6 6
22 19 18 18 17 16 15 15 14 14 14 14 13 12 11 9 8 7 7 6 6 7 8 9 10 11 11 11 11 11 12 12 11 12 12 12 11 10 8 7 6 5 5 4 4 4 4 5 6 7 8 9 9 10 11 11 11 11 10 9 7 7 6
23 22 20 19 18 17 16 16 16 16 16 15 15 14 12 11 9 7 7 6 5 5 6 7 8 9 10 11 11 11 11 10 10 11 11 10 11 10 9 7 7 6 5 4 4 4 4 4 5 6 8 9 10 11 11 11 12 12 11 9 8 9 8
24 23 22 20 19 18 17 17 17 16 16 15 14 14 13 12 10 8 7 6 5 5 5 6 7 7 9 10 10 10 10 9 9 9 9 8 8 8 8 7 6 6 5 5 4 4 4 4 4 5 6 7 8 8 9 10 11 11 11 11 11 11 9
26 25 24 22 20 19 18 17 17 16 16 15 14 14 14 12 11 9 8 7 6 5 5 5 6 6 7 8 9 9 8 8 7 7 7 7 7 7 6 6 6 5 5 4 4 4 4 3 4 4 5 6 6 6 6 8 9 9 9 10 10 8 6
28 27 26 24 22 20 19 18 17 17 16 15 15 15 15 14 12 10 9 8 7 5 5 5 5 6 7 7 8 7 6 6 5 5 5 5 5 5 5 5 4 4 4 3 3 3 3 3 3 3 4 5 6 6 6 6 7 8 8 8 9 9 7
29 28 27 26 23 22 21 20 19 18 17 16 16 16 16 15 13 12 10 10 8 6 6 6 5 5 6 6 7 6 5 4 4 4 4 4 4 4 3 3 3 3 3 3 3 2 2 2 2 2 4 5 6 7 8 8 8 9 9 10 10 10 10
29 29 28 27 25 24 24 23 21 20 19 17 17 17 17 16 15 14 13 11 10 7 6 7 6 5 5 5 5 4 4 4 4 3 3 2 3 3 3 3 3 3 3 3 3 3 3 2 3 3 4 5 6 8 9 9 9 8 8 10 11 11 13
30 30 29 29 28 27 26 25 24 22 20 19 18 18 18 17 16 16 15 14 12 9 8 8 7 5 5 4 4 4 3 3 3 2 2 2 2 2 3 3 3 4 4 4 4 4 4 4 4 5 5 6 7 8 10 11 11 11 12 13 14 15 14
30 30 30 31 30 29 28 27 26 24 22 21 20 20 19 18 17 17 17 16 13 11 9 9 8 6 5 4 4 3 2 2 2 1 1 1 2 3 3 4 5 5 5 5 5 6 6 5 6 6 7 7 8 8 9 12 13 14 14 12 13 15 13
31 31 31 32 32 32 31 30 29 26 24 23 21 21 21 20 19 18 18 17 15 12 11 10 9 7 6 5 4 3 3 3 2 1 1 2 3 4 5 6 6 7 6 6 6 7 7 6 6 7 7 8 9 9 10 12 14 15 15 12 12 14 13
32 32 32 32 34 34 33 32 31 29 26 25 23 23 23 22 20 20 20 18 16 14 13 11 9 8 7 6 6 4 4 4 3 2 1 1 2 4 5 6 7 8 8 8 8 8 8 7 7 8 8 8 9 10 11 12 14 16 18 16 13 13 13
32 31 31 32 33 34 33 32 32 30 28 26 25 24 24 23 22 22 21 20 18 15 14 12 10 9 8 7 6 6 5 4 4 2 1 1 3 4 5 6 7 8 8 9 9 8 8 8 8 9 9 9 9 10 11 12 14 16 18 19 16 14 14
30 29 29 30 32 33 33 31 31 30 28 27 26 26 25 25 24 24 23 21 19 16 14 12 11 9 8 7 6 6 5 4 3 2 2 3 4 5 6 7 8 8 9 9 10 9 9 10 10 10 11 11 10 10 11 12 14 15 18 20 19 17 16
28 28 29 30 31 32 31 31 31 30 28 27 26 26 27 27 27 26 25 22 19 16 14 13 12 10 9 7 6 6 5 3 2 2 4 5 6 7 8 9 9 9 10 10 11 11 11 11 12 12 12 13 13 12 13 14 15 15 17 20 21 20 17
27 28 28 29 30 30 31 32 30 27 26 25 24 25 27 29 29 27 25 22 19 17 15 14 12 11 9 8 7 6 5 3 3 4 6 7 8 9 9 9 10 10 11 11 12 12 12 12 12 13 13 13 13 14 15 15 16 17 18 19 20 20 18
22 25 26 27 26 27 28 27 24 21 20 21 22 25 28 30 29 26 25 22 19 16 15 15 13 11 10 9 8 7 5 4 4 5 6 7 8 9 9 10 11 11 11 12 13 13 14 13 13 14 14 13 14 15 16 16 17 18 19 20 19 19 18
17 19 22 24 25 25 24 22 20 20 20 20 23 26 27 28 28 27 24 22 19 18 17 16 14 12 11 10 8 7 5 4 3 3 4 6 7 9 10 12 13 14 15 15 16 17 17 18 18 17 16 15 15 17 17 18 18 17 18 19 19 18 18
13 15 18 21 23 24 24 23 23 24 24 24 25 27 29 30 31 30 28 25 23 22 21 18 15 13 11 10 8 6 4 3 2 2 3 5 8 10 12 14 16 18 19 19 18 18 19 20 21 21 21 19 18 18 19 19 19 19 19 19 18 18 18
12 13 14 17 20 23 24 25 25 25 24 24 27 29 32 34 34 33 30 27 25 24 22 18 15 13 12 10 8 5 4 2 2 3 5 7 9 11 13 15 16 17 18 18 17 17 19 20 21 22 23 23 22 22 21 21 21 20 21 21 21 20 20
14 13 13 15 19 21 22 24 25 24 25 26 29 32 35 36 35 32 30 27 25 23 20 18 16 13 11 9 7 5 3 1 2 4 6 8 11 12 14 15 15 15 16 18 18 18 18 20 20 21 22 23 24 25 25 26 24 22 21 21 22 22 22
15 14 13 14 17 19 21 22 23 25 27 28 30 34 36 36 34 32 29 27 24 22 19 17 15 12 10 9 6 4 2 2 4 5 8 10 12 13 14 14 15 15 15 17 18 17 17 17 18 20 21 22 24 25 26 28 29 28 27 25 25 24 23
15 15 14 13 14 17 20 22 24 26 28 29 31 35 36 35 33 31 29 27 24 21 19 16 14 12 11 8 5 2 1 4 6 8 10 12 13 13 14 15 15 15 16 16 16 16 16 16 17 18 19 20 21 22 23 25 27 29 30 30 31 30 26
15 15 14 13 13 16 19 22 25 26 28 29 32 36 36 35 33 31 29 26 24 21 19 16 14 12 10 7 4 2 4 7 9 10 12 14 14 14 14 15 16 16 16 16 16 16 16 16 18 19 20 21 22 22 23 24 24 25 27 28 29 30 28
15 16 15 13 13 16 18 21 25 26 27 29 32 35 36 35 34 32 29 26 24 21 18 15 13 11 8 4 2 3 6 8 10 12 13 15 15 15 15 16 16 16 16 16 16 17 18 18 19 21 22 22 23 23 23 23 23 25 26 27 28 29 29
16 16 15 14 14 16 18 21 25 27 27 29 31 33 34 34 33 31 28 25 23 21 18 15 12 8 5 2 4 6 8 9 10 13 14 15 16 16 17 19 19 17 17 17 16 17 18 18 19 21 23 24 24 24 23 22 23 24 26 27 29 30 32
16 17 17 15 15 17 17 19 24 27 27 28 29 30 31 30 28 27 25 23 21 19 16 13 8 4 2 4 7 8 9 9 11 13 14 14 15 15 17 20 19 17 17 18 18 19 19 20 21 22 23 24 25 25 23 21 22 23 24 25 27 28 29
17 17 17 17 16 17 16 17 22 25 25 25 25 26 28 27 25 23 22 20 17 14 12 9 5 2 3 5 9 10 10 10 12 14 14 15 16 16 15 16 17 17 19 20 20 21 21 21 22 23 24 25 26 26 23 21 22 22 22 24 24 25 26
18 19 19 18 16 16 17 19 22 22 22 23 23 24 26 27 25 23 20 17 13 10 7 4 2 3 4 7 10 12 12 12 13 15 16 16 17 17 16 17 17 18 20 22 22 23 23 22 23 24 25 26 27 26 23 22 23 23 24 25 25 25 26
19 20 19 17 17 17 19 21 22 23 24 25 25 25 26 25 24 21 18 15 11 7 3 1 2 4 7 9 12 15 15 14 15 17 17 17 18 19 20 20 20 20 20 21 23 24 24 25 25 26 26 27 29 28 27 27 28 27 28 29 28 27 27
20 19 16 16 17 18 19 21 23 25 28 29 29 28 25 23 21 19 16 12 8 5 2 1 3 5 8 10 12 15 16 17 19 19 18 19 21 22 22 21 21 20 21 22 24 26 28 29 29 28 29 30 31 32 32 31 30 29 28 28 28 27 27
19 16 15 16 18 19 21 23 26 30 32 33 31 27 23 21 19 17 14 11 6 3 0 2 4 6 8 11 13 15 17 20 22 20 19 20 23 23 22 21 21 22 23 26 28 30 31 31 30 29 30 32 33 34 33 31 30 29 28 27 27 27 27
15 15 16 18 20 22 25 28 30 32 32 31 28 26 22 19 17 15 12 8 4 1 2 4 5 7 9 11 14 16 19 21 23 22 20 20 22 21 21 22 23 25 28 30 31 31 31 31 29 29 30 31 32 32 31 29 28 27 26 26 26 27 27
Wind_Direction
201 192 180 173 168 164 157 138 119 115 119 123 126 121 111 102 98 100 99 97 94 91 87 84 83 83 82 81 79 80 84 83 81 83 75 63 64 62 55 47 47 48 293 326 5 327 286 268 280 289 284 287 306 314 308 320 321 305 298 288 276 269 271
211 200 185 181 178 172 166 156 141 129 121 117 118 118 114 108 103 102 99 96 92 88 85 83 81 81 80 78 78 78 79 80 77 77 74 64 56 44 31 27 29 24 7 17 22 5 317 278 284 298 320 324 319 309 309 319 316 308 296 286 282 273 269
214 206 191 186 184 180 176 168 160 150 137 128 124 121 118 114 109 105 100 95 89 83 79 79 80 80 79 77 78 80 82 82 80 82 80 72 65 56 45 34 22 12 354 347 3 358 326 290 285 287 308 321 316 314 319 315 313 314 301 287 286 278 268
217 210 198 192 189 186 184 179 175 168 156 147 142 136 132 128 121 114 105 95 88 81 78 81 85 84 82 81 81 82 81 80 80 81 80 74 68 61 56 52 43 32 20 1 350 342 320 301 298 289 289 293 293 298 304 303 305 305 295 286 287 281 271
221 216 207 203 199 194 192 188 183 179 172 165 160 156 154 149 141 131 117 101 88 80 78 84 89 89 88 87 85 84 81 79 79 79 76 70 67 62 57 56 56 52 44 27 359 335 317 307 303 292 290 294 291 288 291 297 297 289 279 284 286 280 276
223 222 217 213 210 204 200 196 190 188 184 179 176 174 170 166 159 147 133 117 99 85 80 85 89 91 94 94 91 89 85 81 80 80 77 70 66 63 59 57 57 56 49 34 15 347 323 307 298 292 293 294 289 288 291 292 289 283 279 278 276 279 284
224 226 225 222 219 215 209 205 201 199 196 191 187 183 179 174 171 164 153 141 122 99 88 88 88 88 94 98 98 95 91 88 85 84 82 75 68 64 61 61 57 53 45 29 18 5 345 320 301 300 301 294 287 287 288 285 283 282 279 273 275 283 286
225 229 231 231 228 224 219 215 212 209 207 203 195 189 184 180 179 176 169 161 145 123 106 101 96 91 93 98 100 98 95 94 93 91 87 81 74 69 66 64 60 54 42 28 19 7 356 340 314 305 304 298 293 291 290 287 282 277 278 280 280 279 277
228 231 233 235 235 233 229 224 220 217 215 211 202 193 189 187 187 185 180 174 163 142 126 119 110 101 98 98 99 98 96 94 94 94 88 82 78 75 71 66 62 57 44 32 25 12 358 341 321 306 297 292 291 294 296 292 287 283 284 288 285 279 275
231 232 234 237 240 240 237 232 228 224 221 217 207 198 195 193 192 192 188 181 173 157 141 136 124 109 105 103 102 101 97 94 93 89 83 77 73 69 67 62 55 51 42 31 25 17 5 342 319 298 286 279 276 281 288 288 286 285 287 291 291 286 288
233 235 236 239 242 244 242 237 234 230 226 221 211 203 199 196 196 197 194 187 181 172 157 152 144 123 112 110 109 110 106 100 97 90 76 66 60 52 48 43 31 28 23 12 2 354 346 336 311 279 269 267 266 269 277 284 284 279 279 285 283 281 292
234 236 237 239 242 245 245 243 240 236 231 225 216 208 201 198 198 197 196 192 187 181 173 169 164 145 131 123 118 118 115 113 114 110 91 62 45 32 21 11 1 355 349 341 336 330 321 313 306 288 268 261 260 261 266 274 277 273 276 284 285 287 296
234 236 238 241 244 246 248 247 245 242 237 229 221 214 207 203 201 198 195 193 191 188 182 180 177 167 154 144 135 132 126 120 120 114 100 74 46 24 6 353 342 335 326 314 309 312 308 300 298 295 286 274 266 261 260 262 266 272 276 279 282 287 294
235 236 238 242 245 248 250 250 248 246 241 234 225 219 213 208 205 201 196 193 193 191 187 185 184 177 169 164 158 156 150 134 126 103 70 48 27 12 356 345 337 330 320 306 297 296 294 290 288 285 284 281 276 272 269 265 268 277 279 275 277 282 287
238 239 240 241 244 247 248 249 250 247 243 236 228 222 217 212 208 202 197 194 192 189 188 188 186 179 174 172 167 164 157 148 142 121 64 13 358 352 344 337 332 328 320 307 297 292 289 286 282 279 278 278 278 277 276 274 275 281 285 283 283 285 285
243 243 243 243 244 246 246 247 248 248 245 239 231 224 220 215 209 204 199 195 192 189 189 189 184 176 170 166 164 165 162 157 157 157 146 331 327 329 328 325 323 322 319 312 303 296 290 283 280 280 277 274 275 276 275 276 276 280 286 289 289 289 289
248 246 247 247 248 249 248 247 247 247 245 240 232 225 220 215 209 204 200 197 193 191 190 187 181 176 173 169 165 166 167 166 165 171 206 278 301 308 310 311 312 312 311 307 304 300 294 289 285 282 279 275 272 274 275 275 274 277 284 288 289 290 292
252 251 251 251 252 253 252 250 249 247 244 240 233 225 218 212 209 206 203 200 196 194 192 187 181 179 181 181 176 175 175 178 186 219 274 297 305 307 306 304 303 304 301 299 298 297 295 292 290 284 280 278 274 272 274 274 273 274 279 283 287 290 290
259 258 257 257 257 256 256 255 253 250 246 239 230 223 218 212 209 207 204 202 199 196 192 186 182 184 188 190 189 190 191 199 233 281 303 310 310 309 308 305 301 298 294 291 289 289 289 288 287 283 280 278 277 275 273 272 271 271 273 278 284 287 286
268 267 266 265 261 258 258 257 254 249 243 234 226 222 219 214 209 206 203 201 201 200 193 188 188 191 193 195 195 197 203 221 264 294 306 311 313 313 311 307 303 298 292 289 285 284 284 282 280 279 278 277 277 276 274 272 271 271 271 274 278 281 283
276 274 272 269 265 261 257 253 249 244 239 237 234 225 218 212 207 204 203 201 199 199 195 192 194 196 198 201 200 198 206 227 261 291 304 310 314 316 313 309 305 299 292 288 284 280 278 277 277 277 275 273 274 274 273 273 271 270 270 271 273 276 279
284 281 277 273 270 266 258 249 247 245 242 245 240 224 214 212 208 203 202 201 201 202 200 198 200 202 203 202 198 199 211 231 253 279 299 308 311 312 311 307 305 305 302 295 289 281 274 270 269 270 270 270 270 270 269 269 269 268 268 268 269 271 274
294 287 280 274 271 269 262 257 257 253 246 241 233 219 211 211 209 205 203 204 205 204 201 201 202 204 204 200 196 200 208 217 246 285 303 308 307 306 306 303 301 304 305 302 295 289 281 274 268 265 264 264 265 266 267 266 266 266 267 267 268 268 268
300 288 278 270 265 262 260 259 258 255 247 238 229 218 210 207 206 206 206 205 202 197 195 197 198 198 197 196 195 192 192 207 274 304 309 309 305 302 302 299 296 296 297 296 294 289 285 282 276 270 266 262 260 259 260 262 263 263 264 265 266 266 266
302 290 276 267 262 256 252 251 251 248 243 236 228 217 209 205 204 204 204 201 196 192 192 193 191 189 187 189 192 186 182 228 298 308 310 309 306 304 301 298 295 290 289 293 295 289 282 280 280 277 274 270 266 260 256 255 257 258 261 263 264 264 263
297 290 278 265 258 252 246 242 242 242 239 233 224 213 207 204 201 198 196 194 191 190 190 187 183 180 177 182 189 186 185 303 313 314 314 312 310 306 302 299 296 291 288 293 294 288 280 279 278 278 278 276 272 267 262 258 255 255 256 259 262 262 261
292 291 284 267 251 244 239 237 239 240 237 229 217 208 204 200 196 193 191 190 188 187 185 179 174 173 173 179 190 196 292 322 327 323 322 322 317 309 303 298 294 290 289 288 286 282 280 282 282 281 280 277 273 271 268 265 262 258 256 255 257 259 259
292 292 287 272 250 238 235 235 237 237 233 224 213 206 201 197 193 190 188 187 184 180 175 171 171 174 176 183 204 263 324 330 333 330 328 328 323 313 306 300 293 290 289 286 284 283 283 286 287 285 282 278 275 272 268 265 262 258 255 253 254 257 259
293 291 288 275 256 242 235 233 234 233 227 219 210 204 200 195 190 187 184 183 177 170 168 171 176 179 182 196 250 319 333 333 333 332 330 328 323 315 309 303 295 288 287 285 283 282 283 286 288 287 283 280 278 275 270 267 263 259 257 256 255 257 260
290 289 284 275 261 248 237 231 232 230 221 213 207 201 196 190 186 183 179 174 170 165 167 175 180 181 192 248 316 335 336 332 330 329 326 322 318 311 307 307 302 290 284 283 281 279 281 284 286 286 284 283 280 277 274 272 269 266 265 265 263 262 262
284 284 280 274 264 252 241 231 228 225 218 209 202 195 188 181 176 174 170 166 168 168 168 174 181 189 236 306 334 340 335 328 325 324 320 315 312 305 301 304 303 291 283 282 280 280 281 283 285 285 284 283 281 279 277 276 274 272 271 271 270 269 267
278 278 275 270 261 250 240 227 221 218 211 200 191 183 177 170 164 164 164 164 170 172 168 170 185 233 285 323 340 340 331 324 320 318 314 311 310 305 298 297 295 290 288 287 286 286 285 285 284 283 282 282 280 277 278 278 277 275 275 273 272 270 269
274 274 272 267 256 244 233 222 214 205 194 184 175 168 165 161 158 158 161 165 171 172 166 170 213 286 308 328 337 336 330 323 318 316 313 310 310 307 302 299 296 293 290 288 288 289 288 286 284 282 280 278 275 276 279 279 277 276 276 275 273 271 270
271 272 268 259 246 236 226 214 201 187 175 167 159 153 153 152 152 153 159 167 170 166 164 188 285 320 327 330 331 332 329 322 318 315 311 308 307 305 303 300 296 293 289 285 285 287 286 284 282 280 277 273 272 275 278 278 277 276 275 274 273 271 269
271 268 259 245 233 221 209 197 184 171 162 153 147 145 147 148 150 154 159 164 162 158 171 301 336 339 335 329 325 326 324 321 319 315 308 304 305 303 299 297 294 292 288 286 286 287 286 285 283 280 276 275 274 275 276 276 275 274 272 271 270 268 266
266 255 240 225 211 195 183 174 165 158 153 146 142 142 145 149 153 155 156 157 155 154 156 348 349 340 330 324 320 320 319 318 318 313 303 300 301 299 296 294 292 290 289 288 289 290 289 288 285 280 277 276 276 276 274 273 271 269 267 265 264 263 261
246 228 212 198 186 174 165 158 152 149 146 142 140 142 145 148 150 148 145 144 140 110 5 347 339 331 324 317 315 314 314 313 313 310 302 296 296 294 292 291 291 291 292 292 293 292 291 288 283 279 277 276 276 275 272 268 265 264 262 259 258 257 255